479  
ASUS41 KRLX 071310  
RWRRLX  
REGIONAL WEATHER ROUNDUP  
NATIONAL WEATHER SERVICE CHARLESTON WV  
900 AM EDT THU JUL 07 2022  
 
NOTE: "FAIR" INDICATES FEW OR NO CLOUDS BELOW 12,000 FEET WITH NO  
SIGNIFICANT WEATHER AND/OR S TO VISIBILITY
.  
 
WVZ003-071400-  
NORTHERN PANHANDLE OF WEST VIRGINIA  
 
CITY SKY/WX TMP DP RH WIND PRES REMARKS
 
WHEELING PTSUNNY 72 67 84 N7 30.02R  

 
 
WVZ009-071400-  
NORTHWEST WEST VIRGINIA  
 
CITY SKY/WX TMP DP RH WIND PRES REMARKS
 
PARKERSBURG CLOUDY 73 69 87 CALM 30.01S  

 
 
WVZ006-071400-  
WESTERN WEST VIRGINIA  
 
CITY SKY/WX TMP DP RH WIND PRES REMARKS
 
HUNTINGTON CLOUDY 73 70 90 SW3 30.00F FOG  
POINT PLEASANT CLOUDY 72 72 100 CALM 30.03R FOG  

 
 
WVZ015-071400-  
WEST CENTRAL WEST VIRGINIA  
 
CITY SKY/WX TMP DP RH WIND PRES REMARKS
 
CHARLESTON CLOUDY 74 72 93 W3 30.02R  

 
 
WVZ509-031-039-071400-  
NORTH CENTRAL WEST VIRGINIA  
 
CITY SKY/WX TMP DP RH WIND PRES REMARKS
 
MORGANTOWN CLOUDY 73 70 90 CALM 30.02S FOG  
CLARKSBURG CLOUDY 74 70 87 CALM 30.01S FOG  
BUCKHANNON CLOUDY 70 70 100 SW5 30.04S FOG  

 
 
WVZ515-516-025-034-042-507-071400-  
SOUTHERN WEST VIRGINIA  
 
CITY SKY/WX TMP DP RH WIND PRES REMARKS
 
BECKLEY CLOUDY 71 68 90 SW5 30.09S  
LOGAN CLOUDY 72 72 100 CALM 30.05S  
PINEVILLE NOT AVBL  
BLUEFIELD PTSUNNY 70 67 90 W8 30.12S  
LEWISBURG PTSUNNY 73 67 81 W6 30.07S  

 
 
WVZ525-526-071400-  
NORTHERN MOUNTAINS OF WEST VIRGINIA  
 
CITY SKY/WX TMP DP RH WIND PRES REMARKS
 
ELKINS CLOUDY 71 68 90 CALM 30.06S  

 
 
WVZ502-504-052-071400-  
EASTERN PANHANDLE OF WEST VIRGINIA  
 
CITY SKY/WX TMP DP RH WIND PRES REMARKS
 
PETERSBURG CLOUDY 75 75 100 CALM 30.01R  
CUMBERLAND CLOUDY 70 67 92 N5 30.05R  
MARTINSBURG LGT RAIN 68 66 93 N6 29.99R FOG  

 
 
OHZ075-083-KYZ101-071400-  
SOUTHEAST OHIO/NORTHEAST KENTUCKY  
 
CITY SKY/WX TMP DP RH WIND PRES REMARKS
 
ATHENS CLOUDY 74 71 92 CALM 30.01S  
JACKSON CLOUDY 72 70 94 N5 30.03R FOG  
ASHLAND CLOUDY 72 32 23 CALM 30.01S  

 
 
 
CLICK HERE TO GO TO PREVIOUS BULLETINS.

The Nexlab WV Page
The Nexlab OH Page
The Nexlab KY Page
The Nexlab VA Page Main Text Page